BAW82 DNAA-EGLL

Flight info

Callsign BAW82
Flight time N/A
Altitude 23000
Route OXORU1Q OXORU V456 KUA R778 KAN/N0488F240 A604 MIMBA/N0500F360 UA604 TMS UA615 TIFOU/N0489F380 UA615 GHA/N0488F370 UB726 BSA/N0483F380 UJ66 ALR UG30 SADAF N856 UMURE N863 GIROM DCT AGN DCT SECHE DCT UVELI DCT CNA DCT MANAK UY110 UPALO/N0491F340 UY110 REVTU UP87 ROXOG
Aircraft A35K/H-SDE2E3GHIJ3J4J5LM1ORWXY/LB1D1

Departure

Time 2026-04-30 09:07
Airport Nnamdi Azikiwe International Airport (DNAA)

Arrival

Time N/A
Airport London Heathrow Airport (EGLL)
Time Latitude Longitude Altitude Speed Heading
2026-04-30 08:52 9.00569 7.26854 1138 ft 0 kts 76°
2026-04-30 08:58 9.00563 7.26831 1138 ft 4 kts 75°
2026-04-30 08:58 9.00556 7.26805 1137 ft 4 kts 74°
2026-04-30 08:58 9.00549 7.26778 1139 ft 4 kts 73°
2026-04-30 08:58 9.00545 7.26766 1137 ft 1 kts 73°
2026-04-30 08:59 9.00545 7.26765 1137 ft 0 kts 73°
2026-04-30 09:01 9.00545 7.26767 1131 ft 1 kts 73°
2026-04-30 09:01 9.00549 7.26775 1140 ft 2 kts 66°
2026-04-30 09:02 9.00574 7.26801 1140 ft 3 kts 25°
2026-04-30 09:02 9.00594 7.26801 1137 ft 3 kts 355°
2026-04-30 09:02 9.00616 7.26791 1138 ft 5 kts 327°
2026-04-30 09:03 9.00642 7.26751 1140 ft 9 kts 295°
2026-04-30 09:03 9.00671 7.26690 1140 ft 10 kts 298°
2026-04-30 09:03 9.00717 7.26628 1139 ft 12 kts 317°
2026-04-30 09:03 9.00793 7.26613 1135 ft 13 kts 19°
2026-04-30 09:04 9.00884 7.26669 1140 ft 17 kts 35°
2026-04-30 09:04 9.00994 7.26744 1143 ft 21 kts 34°
2026-04-30 09:04 9.01120 7.26834 1144 ft 24 kts 36°
2026-04-30 09:04 9.01260 7.26934 1144 ft 26 kts 35°
2026-04-30 09:05 9.01408 7.27038 1147 ft 26 kts 34°
2026-04-30 09:05 9.01553 7.27140 1149 ft 25 kts 35°
2026-04-30 09:05 9.01697 7.27243 1150 ft 25 kts 35°
2026-04-30 09:05 9.01811 7.27323 1151 ft 15 kts 34°
2026-04-30 09:06 9.01902 7.27358 1147 ft 14 kts 349°
2026-04-30 09:06 9.01971 7.27294 1152 ft 14 kts 296°
2026-04-30 09:06 9.01947 7.27208 1151 ft 15 kts 222°
2026-04-30 09:06 9.01791 7.27097 1150 ft 51 kts 214°
2026-04-30 09:07 9.01317 7.26761 1147 ft 113 kts 215°
2026-04-30 09:07 9.00514 7.26202 1138 ft 165 kts 214°
2026-04-30 09:07 8.99453 7.25447 1303 ft 196 kts 216°
2026-04-30 09:07 8.98471 7.24569 2034 ft 188 kts 236°
2026-04-30 09:08 8.98214 7.23310 2648 ft 192 kts 280°
2026-04-30 09:08 8.98940 7.22136 2863 ft 212 kts 324°
2026-04-30 09:08 9.00336 7.21587 3359 ft 219 kts 343°
2026-04-30 09:08 9.01791 7.21123 3983 ft 220 kts 339°
2026-04-30 09:09 9.03206 7.20527 4618 ft 221 kts 335°
2026-04-30 09:09 9.04594 7.19834 4948 ft 223 kts 332°
2026-04-30 09:09 9.05966 7.19082 5035 ft 224 kts 331°
2026-04-30 09:09 9.07307 7.18309 5038 ft 225 kts 330°
2026-04-30 09:10 9.08665 7.17506 5039 ft 226 kts 329°
2026-04-30 09:10 9.10015 7.16695 5037 ft 226 kts 329°
2026-04-30 09:10 9.11367 7.15880 5036 ft 226 kts 329°
2026-04-30 09:10 9.12717 7.15060 5035 ft 226 kts 329°
2026-04-30 09:11 9.14094 7.14299 5023 ft 226 kts 338°
2026-04-30 09:11 9.15628 7.14015 5028 ft 226 kts
2026-04-30 09:11 9.17180 7.14357 5182 ft 235 kts 17°
2026-04-30 09:11 9.18819 7.14897 5380 ft 259 kts 18°
2026-04-30 09:12 9.20563 7.15484 5895 ft 267 kts 18°
2026-04-30 09:12 9.22337 7.16074 6568 ft 270 kts 19°
2026-04-30 09:12 9.24129 7.16666 7238 ft 272 kts 19°
2026-04-30 09:12 9.25938 7.17260 7975 ft 274 kts 19°
2026-04-30 09:13 9.27760 7.17857 8720 ft 276 kts 19°
2026-04-30 09:13 9.29566 7.18448 9480 ft 277 kts 19°
2026-04-30 09:13 9.31409 7.19051 10230 ft 280 kts 20°
2026-04-30 09:13 9.33318 7.19676 10590 ft 297 kts 20°
2026-04-30 09:14 9.35346 7.20341 10877 ft 316 kts 20°
2026-04-30 09:14 9.37499 7.21046 11151 ft 333 kts 20°
2026-04-30 09:14 9.39763 7.21786 11450 ft 349 kts 20°
2026-04-30 09:14 9.42125 7.22558 11737 ft 363 kts 20°
2026-04-30 09:15 9.44570 7.23357 12066 ft 374 kts 20°
2026-04-30 09:15 9.47063 7.24170 12522 ft 379 kts 20°
2026-04-30 09:15 9.49593 7.24996 13051 ft 384 kts 20°
2026-04-30 09:15 9.52152 7.25832 13566 ft 388 kts 20°
2026-04-30 09:16 9.54733 7.26675 14068 ft 392 kts 20°
2026-04-30 09:16 9.57346 7.27529 14530 ft 396 kts 20°
2026-04-30 09:16 9.59974 7.28388 15006 ft 399 kts 20°
2026-04-30 09:16 9.62628 7.29257 15481 ft 402 kts 21°
2026-04-30 09:17 9.65269 7.30121 15927 ft 405 kts 21°
2026-04-30 09:17 9.67965 7.31003 16408 ft 408 kts 21°
2026-04-30 09:17 9.70678 7.31890 16861 ft 412 kts 21°
2026-04-30 09:17 9.73411 7.32785 17309 ft 415 kts 21°
2026-04-30 09:18 9.76172 7.33689 17753 ft 418 kts 21°
2026-04-30 09:18 9.78955 7.34601 18135 ft 423 kts 21°
2026-04-30 09:18 9.81770 7.35523 18521 ft 427 kts 21°
2026-04-30 09:18 9.84607 7.36449 18896 ft 429 kts 20°
2026-04-30 09:19 9.86524 7.36972 19140 ft 433 kts 15°
2026-04-30 09:19 9.89507 7.37503 19516 ft 437 kts 11°
2026-04-30 09:19 9.92538 7.37877 19877 ft 440 kts
2026-04-30 09:19 9.95591 7.38175 20238 ft 443 kts
2026-04-30 09:20 9.98666 7.38450 20599 ft 445 kts
2026-04-30 09:20 10.01764 7.38731 20966 ft 448 kts
2026-04-30 09:20 10.04875 7.39026 21326 ft 450 kts
2026-04-30 09:20 10.08011 7.39337 21688 ft 453 kts
2026-04-30 09:21 10.11155 7.39658 22060 ft 455 kts
2026-04-30 09:21 10.14317 7.39989 22397 ft 458 kts
2026-04-30 09:21 10.17459 7.40320 22755 ft 461 kts
2026-04-30 09:21 10.20661 7.40657 23001 ft 463 kts
2026-04-30 09:22 10.23898 7.40998 23046 ft 469 kts
2026-04-30 09:22 10.27142 7.41339 23047 ft 470 kts
2026-04-30 09:22 10.30400 7.41681 23048 ft 470 kts
2026-04-30 09:22 10.33663 7.42022 23048 ft 470 kts
2026-04-30 09:23 10.36917 7.42363 23050 ft 470 kts
2026-04-30 09:23 10.40131 7.42700 23048 ft 470 kts
2026-04-30 09:23 10.43386 7.43041 23048 ft 470 kts
2026-04-30 09:23 10.46641 7.43383 23049 ft 470 kts
2026-04-30 09:24 10.49903 7.43726 23046 ft 470 kts
2026-04-30 09:24 10.53160 7.44069 23048 ft 471 kts
2026-04-30 09:24 10.56405 7.44476 23046 ft 470 kts 13°
2026-04-30 09:24 10.59540 7.45371 23048 ft 466 kts 24°
2026-04-30 09:25 10.62403 7.46867 23049 ft 463 kts 33°
2026-04-30 09:25 10.65109 7.48639 23044 ft 462 kts 36°
2026-04-30 09:25 10.67743 7.50522 23044 ft 462 kts 38°
2026-04-30 09:25 10.70340 7.52453 23045 ft 462 kts 38°
2026-04-30 09:26 10.72927 7.54399 23045 ft 462 kts 38°
2026-04-30 09:26 10.75482 7.56315 23044 ft 462 kts 38°
2026-04-30 09:26 10.78078 7.58247 23049 ft 462 kts 38°
2026-04-30 09:26 10.80681 7.60172 23042 ft 462 kts 38°
2026-04-30 09:27 10.83279 7.62083 23044 ft 461 kts 37°
2026-04-30 09:27 10.85883 7.63992 23045 ft 461 kts 37°
2026-04-30 09:27 10.88487 7.65901 23045 ft 461 kts 37°
2026-04-30 09:27 10.91092 7.67809 23045 ft 461 kts 37°
2026-04-30 09:28 10.93691 7.69714 23042 ft 461 kts 37°
2026-04-30 09:28 10.96295 7.71624 23042 ft 461 kts 37°
2026-04-30 09:28 10.98906 7.73539 23043 ft 461 kts 37°
2026-04-30 09:28 11.01509 7.75450 23045 ft 461 kts 37°
2026-04-30 09:29 11.04106 7.77357 23044 ft 461 kts 37°
2026-04-30 09:29 11.06710 7.79270 23045 ft 461 kts 37°
2026-04-30 09:29 11.09313 7.81182 23045 ft 461 kts 38°
2026-04-30 09:29 11.11915 7.83094 23045 ft 461 kts 38°
2026-04-30 09:30 11.14484 7.84982 23048 ft 461 kts 37°
2026-04-30 09:30 11.17116 7.86917 23048 ft 461 kts 38°
2026-04-30 09:30 11.19685 7.88807 23051 ft 461 kts 37°
2026-04-30 09:30 11.22296 7.90727 23040 ft 462 kts 38°
2026-04-30 09:31 11.24910 7.92650 23041 ft 464 kts 38°
2026-04-30 09:31 11.27523 7.94571 23039 ft 464 kts 37°
2026-04-30 09:31 11.30155 7.96485 23039 ft 464 kts 37°
2026-04-30 09:31 11.32790 7.98382 23039 ft 464 kts 37°
2026-04-30 09:32 11.35438 8.00284 23032 ft 464 kts 37°
2026-04-30 09:32 11.38080 8.02181 23031 ft 464 kts 37°
2026-04-30 09:32 11.40720 8.04080 23031 ft 464 kts 37°
2026-04-30 09:32 11.43352 8.05977 23031 ft 464 kts 37°
2026-04-30 09:33 11.45989 8.07880 23034 ft 464 kts 37°
2026-04-30 09:33 11.48625 8.09785 23031 ft 464 kts 37°
2026-04-30 09:33 11.51257 8.11687 23020 ft 464 kts 37°
2026-04-30 09:33 11.53896 8.13595 23020 ft 464 kts 37°
2026-04-30 09:34 11.56534 8.15503 23018 ft 464 kts 37°
2026-04-30 09:34 11.59140 8.17388 23020 ft 465 kts 37°
2026-04-30 09:34 11.61785 8.19302 23020 ft 466 kts 37°
2026-04-30 09:34 11.64434 8.21218 23012 ft 466 kts 37°
2026-04-30 09:35 11.67089 8.23138 23012 ft 466 kts 37°
2026-04-30 09:35 11.69732 8.25051 23013 ft 466 kts 37°
2026-04-30 09:35 11.72380 8.26968 23012 ft 466 kts 37°
2026-04-30 09:35 11.75028 8.28886 23012 ft 466 kts 37°
2026-04-30 09:36 11.77669 8.30799 23007 ft 466 kts 37°
2026-04-30 09:36 11.80318 8.32718 23007 ft 466 kts 37°
2026-04-30 09:36 11.82965 8.34637 23007 ft 466 kts 37°
2026-04-30 09:36 11.85611 8.36555 23006 ft 466 kts 37°
2026-04-30 09:37 11.88256 8.38472 23003 ft 466 kts 37°
2026-04-30 09:37 11.90894 8.40385 23004 ft 466 kts 37°
2026-04-30 09:37 11.93532 8.42299 22998 ft 466 kts 37°
2026-04-30 09:37 11.96178 8.44219 22998 ft 466 kts 37°
2026-04-30 09:38 11.98825 8.46127 22996 ft 467 kts 36°
2026-04-30 09:38 12.01666 8.47752 23072 ft 469 kts 25°
2026-04-30 09:38 12.04768 8.48764 23523 ft 470 kts 13°
2026-04-30 09:38 12.08043 8.49085 23862 ft 475 kts
2026-04-30 09:39 12.11328 8.48991 23976 ft 482 kts 358°
2026-04-30 09:39 12.14686 8.48715 23994 ft 485 kts 355°
2026-04-30 09:39 12.18043 8.48350 23995 ft 485 kts 355°
2026-04-30 09:39 12.21404 8.47960 23988 ft 485 kts 355°
2026-04-30 09:40 12.24752 8.47578 23988 ft 485 kts 355°
2026-04-30 09:40 12.28115 8.47210 23988 ft 485 kts 355°
2026-04-30 09:40 12.31464 8.46861 23987 ft 484 kts 355°
2026-04-30 09:40 12.34822 8.46522 23988 ft 483 kts 355°
2026-04-30 09:41 12.38173 8.46190 23985 ft 483 kts 356°
2026-04-30 09:41 12.41521 8.45862 23985 ft 483 kts 356°
2026-04-30 09:41 12.44880 8.45533 23986 ft 483 kts 356°
2026-04-30 09:41 12.48223 8.45204 23985 ft 483 kts 355°
2026-04-30 09:42 12.51574 8.44875 23978 ft 483 kts 355°
2026-04-30 09:42 12.54924 8.44544 23979 ft 483 kts 355°
2026-04-30 09:42 12.58232 8.44218 23980 ft 483 kts 355°
2026-04-30 09:42 12.61622 8.43883 23980 ft 483 kts 356°
2026-04-30 09:43 12.64926 8.43556 23977 ft 483 kts 356°
2026-04-30 09:43 12.68276 8.43224 23976 ft 482 kts 356°
2026-04-30 09:43 12.71614 8.42894 23977 ft 481 kts 356°
2026-04-30 09:43 12.74939 8.42565 23977 ft 481 kts 355°
2026-04-30 09:44 12.78279 8.42234 23980 ft 481 kts 356°
2026-04-30 09:44 12.81611 8.41908 23980 ft 481 kts 356°
2026-04-30 09:44 12.84952 8.41578 23982 ft 481 kts 355°
2026-04-30 09:44 12.88286 8.41246 23980 ft 481 kts 356°
2026-04-30 09:45 12.91575 8.40918 23980 ft 481 kts 356°
2026-04-30 09:45 12.94902 8.40586 23977 ft 481 kts 356°
2026-04-30 09:45 12.98236 8.40254 23977 ft 481 kts 356°
2026-04-30 09:45 13.01570 8.39923 23977 ft 481 kts 355°
2026-04-30 09:46 13.04902 8.39591 24001 ft 480 kts 355°
2026-04-30 09:46 13.08215 8.39262 24410 ft 477 kts 355°
2026-04-30 09:46 13.11516 8.38936 24884 ft 477 kts 355°
2026-04-30 09:46 13.14830 8.38623 25284 ft 478 kts 356°
2026-04-30 09:47 13.18153 8.38318 25660 ft 481 kts 356°
2026-04-30 09:47 13.21493 8.38013 26070 ft 483 kts 356°
2026-04-30 09:47 13.24858 8.37704 26462 ft 486 kts 356°
2026-04-30 09:47 13.28237 8.37393 26875 ft 489 kts 355°
2026-04-30 09:48 13.31631 8.37078 27289 ft 492 kts 356°
2026-04-30 09:48 13.35053 8.36759 27687 ft 495 kts 355°
2026-04-30 09:48 13.38504 8.36437 28076 ft 498 kts 355°
2026-04-30 09:48 13.41972 8.36112 28430 ft 503 kts 355°
2026-04-30 09:49 13.45469 8.35784 28793 ft 506 kts 355°
2026-04-30 09:49 13.48989 8.35454 29197 ft 508 kts 355°
2026-04-30 09:49 13.52524 8.35123 29497 ft 512 kts 355°
2026-04-30 09:49 13.56080 8.34790 29880 ft 514 kts 355°
2026-04-30 09:50 13.59597 8.34461 30280 ft 514 kts 355°
2026-04-30 09:50 13.63161 8.34126 30756 ft 512 kts 355°
2026-04-30 09:50 13.66698 8.33795 31293 ft 507 kts 355°
2026-04-30 09:50 13.70199 8.33467 31850 ft 503 kts 355°
2026-04-30 09:51 13.73672 8.33142 32382 ft 499 kts 355°
2026-04-30 09:51 13.77125 8.32820 32903 ft 495 kts 355°
2026-04-30 09:51 13.80555 8.32501 33424 ft 492 kts 355°
2026-04-30 09:51 13.83969 8.32179 33763 ft 492 kts 355°
2026-04-30 09:52 13.87331 8.31861 34118 ft 491 kts 355°
2026-04-30 09:52 13.90730 8.31540 34429 ft 490 kts 355°
2026-04-30 09:52 13.94128 8.31219 34703 ft 490 kts 355°
2026-04-30 09:52 13.97519 8.30899 35034 ft 489 kts 355°
2026-04-30 09:53 14.00902 8.30580 35303 ft 488 kts 355°
2026-04-30 09:53 14.04299 8.30259 35604 ft 487 kts 355°
2026-04-30 09:53 14.07671 8.29942 35892 ft 487 kts 354°
2026-04-30 09:53 14.11057 8.29623 35968 ft 491 kts 354°
2026-04-30 09:54 14.17881 8.28979 35976 ft 492 kts 354°
2026-04-30 09:54 14.24656 8.28340 35978 ft 491 kts 354°
2026-04-30 09:55 14.31467 8.27696 35973 ft 491 kts 354°
2026-04-30 09:55 14.38276 8.27053 35975 ft 491 kts 354°
2026-04-30 09:56 14.45081 8.26409 35977 ft 491 kts 354°
2026-04-30 09:56 14.51895 8.25765 35976 ft 491 kts 354°
2026-04-30 09:57 14.58706 8.25120 35973 ft 491 kts 354°
2026-04-30 09:57 14.65509 8.24476 35974 ft 491 kts 354°
2026-04-30 09:58 14.72313 8.23831 35981 ft 491 kts 354°
2026-04-30 09:58 14.79131 8.23185 35981 ft 491 kts 354°
2026-04-30 09:59 14.92709 8.21896 35978 ft 491 kts 353°
2026-04-30 10:00 15.02927 8.20923 35979 ft 491 kts 354°
2026-04-30 10:01 15.13140 8.19954 35983 ft 491 kts 354°
2026-04-30 10:02 15.23355 8.18986 35978 ft 492 kts 354°
2026-04-30 10:02 15.30141 8.18343 35975 ft 492 kts 353°
2026-04-30 10:03 15.36960 8.17696 35979 ft 492 kts 353°
2026-04-30 10:03 15.43782 8.17048 35983 ft 492 kts 353°
2026-04-30 10:04 15.50594 8.16400 35978 ft 492 kts 353°
2026-04-30 10:04 15.57422 8.15750 35976 ft 492 kts 353°
2026-04-30 10:05 15.64243 8.15101 35983 ft 492 kts 353°
2026-04-30 10:05 15.71062 8.14450 35977 ft 492 kts 353°
2026-04-30 10:06 15.77888 8.13800 35971 ft 492 kts 353°
2026-04-30 10:06 15.84660 8.13155 35982 ft 492 kts 353°
2026-04-30 10:07 15.91486 8.12503 35975 ft 492 kts 352°
2026-04-30 10:07 15.97167 8.11959 35973 ft 492 kts 353°
2026-04-30 10:08 16.04000 8.11306 35977 ft 492 kts 353°
2026-04-30 10:08 16.10834 8.10653 35972 ft 492 kts 352°
2026-04-30 10:09 16.17661 8.10000 35974 ft 492 kts 353°
2026-04-30 10:09 16.24489 8.09347 35972 ft 493 kts 352°
2026-04-30 10:10 16.31328 8.08691 35967 ft 494 kts 352°
2026-04-30 10:10 16.38136 8.08037 35969 ft 494 kts 352°
2026-04-30 10:11 16.44979 8.07381 35970 ft 494 kts 352°
2026-04-30 10:11 16.51820 8.06723 35968 ft 494 kts 352°
2026-04-30 10:12 16.58662 8.06066 35970 ft 494 kts 352°
2026-04-30 10:12 16.65512 8.05407 35969 ft 494 kts 352°
2026-04-30 10:13 16.72370 8.04747 35968 ft 494 kts 352°
2026-04-30 10:13 16.79185 8.04090 35965 ft 494 kts 352°
2026-04-30 10:14 16.86037 8.03430 35962 ft 494 kts 352°
2026-04-30 10:14 16.96283 8.02268 36047 ft 491 kts 345°
2026-04-30 10:15 17.02712 8.00029 36048 ft 486 kts 335°
2026-04-30 10:15 17.08957 7.97299 36036 ft 486 kts 334°
2026-04-30 10:16 17.15143 7.94509 36018 ft 487 kts 334°
2026-04-30 10:17 17.24523 7.90303 35992 ft 487 kts 334°
2026-04-30 10:17 17.33821 7.86157 35953 ft 486 kts 334°
2026-04-30 10:18 17.40044 7.83380 35952 ft 486 kts 334°
2026-04-30 10:19 17.49376 7.79212 35949 ft 486 kts 334°
2026-04-30 10:19 17.55598 7.76430 35949 ft 486 kts 334°
2026-04-30 10:20 17.61818 7.73647 35942 ft 486 kts 334°
2026-04-30 10:20 17.71132 7.69475 35941 ft 484 kts 334°
2026-04-30 10:21 17.77295 7.66712 35941 ft 484 kts 334°
2026-04-30 10:21 17.83506 7.63926 35941 ft 484 kts 334°
2026-04-30 10:22 17.89703 7.61143 35944 ft 484 kts 334°
2026-04-30 10:22 17.95893 7.58362 35943 ft 484 kts 334°
2026-04-30 10:23 18.02103 7.55569 35944 ft 485 kts 334°
2026-04-30 10:23 18.08311 7.52776 35944 ft 485 kts 334°
2026-04-30 10:24 18.14479 7.49998 35944 ft 485 kts 334°
2026-04-30 10:24 18.20688 7.47200 35944 ft 485 kts 334°
2026-04-30 10:25 18.26900 7.44397 35944 ft 485 kts 334°
2026-04-30 10:25 18.33101 7.41599 35947 ft 484 kts 334°
2026-04-30 10:26 18.39289 7.38804 35945 ft 483 kts 334°
2026-04-30 10:26 18.45459 7.36014 35950 ft 483 kts 334°
2026-04-30 10:27 18.51590 7.33239 35947 ft 483 kts 334°
2026-04-30 10:27 18.57760 7.30445 35949 ft 483 kts 334°
2026-04-30 10:28 18.63936 7.27646 35959 ft 483 kts 334°
2026-04-30 10:28 18.70105 7.24848 35948 ft 482 kts 333°
2026-04-30 10:29 18.76273 7.22049 35951 ft 482 kts 333°
2026-04-30 10:29 18.82434 7.19250 35954 ft 482 kts 333°
2026-04-30 10:30 18.88595 7.16449 35959 ft 482 kts 333°
2026-04-30 10:30 18.94752 7.13647 35962 ft 482 kts 333°
2026-04-30 10:31 19.00871 7.10861 35966 ft 482 kts 333°
2026-04-30 10:31 19.07018 7.08060 35964 ft 481 kts 333°
2026-04-30 10:32 19.13179 7.05249 35963 ft 481 kts 333°
2026-04-30 10:32 19.19320 7.02445 35963 ft 481 kts 333°
2026-04-30 10:33 19.25461 6.99640 35963 ft 481 kts 333°
2026-04-30 10:33 19.31604 6.96831 35966 ft 481 kts 333°
2026-04-30 10:34 19.37699 6.94042 35966 ft 480 kts 333°
2026-04-30 10:34 19.43826 6.91236 35970 ft 479 kts 333°
2026-04-30 10:35 19.49954 6.88426 35968 ft 479 kts 333°
2026-04-30 10:35 19.56076 6.85618 35970 ft 479 kts 333°
2026-04-30 10:36 19.62200 6.82805 35970 ft 480 kts 333°
2026-04-30 10:36 19.68342 6.79983 35984 ft 481 kts 333°
2026-04-30 10:37 19.74435 6.77182 35970 ft 480 kts 333°
2026-04-30 10:37 19.80565 6.74360 35973 ft 480 kts 333°
2026-04-30 10:38 19.86690 6.71538 35972 ft 480 kts 333°
2026-04-30 10:38 19.92825 6.68709 35969 ft 480 kts 333°
2026-04-30 10:39 19.98952 6.65882 35974 ft 480 kts 333°
2026-04-30 10:39 20.05044 6.63069 35960 ft 479 kts 332°
2026-04-30 10:40 20.11152 6.60246 35980 ft 479 kts 332°
2026-04-30 10:40 20.17311 6.57527 35979 ft 480 kts 334°
2026-04-30 10:41 20.23543 6.54955 35981 ft 480 kts 335°
2026-04-30 10:41 20.29774 6.52376 35982 ft 480 kts 334°
2026-04-30 10:42 20.35995 6.49767 35984 ft 480 kts 334°
2026-04-30 10:42 20.42195 6.47151 35982 ft 478 kts 334°
2026-04-30 10:43 20.48346 6.44550 35979 ft 479 kts 334°
2026-04-30 10:43 20.54556 6.41922 35990 ft 480 kts 334°
2026-04-30 10:44 20.60772 6.39293 36007 ft 480 kts 334°
2026-04-30 10:44 20.66986 6.36663 35991 ft 480 kts 334°
2026-04-30 10:45 20.73200 6.34030 35996 ft 480 kts 333°
2026-04-30 10:45 20.79407 6.31397 36001 ft 479 kts 333°
2026-04-30 10:46 20.85607 6.28764 36001 ft 479 kts 333°
2026-04-30 10:46 20.91796 6.26134 36000 ft 479 kts 333°
2026-04-30 10:47 20.98000 6.23495 36004 ft 479 kts 333°
2026-04-30 10:47 21.04197 6.20857 36015 ft 479 kts 333°
2026-04-30 10:48 21.10380 6.18223 36006 ft 477 kts 333°
2026-04-30 10:48 21.16517 6.15607 36009 ft 477 kts 333°
2026-04-30 10:49 21.22698 6.12967 36007 ft 477 kts 333°
2026-04-30 10:49 21.28870 6.10330 36008 ft 477 kts 333°
2026-04-30 10:50 21.35043 6.07691 36010 ft 478 kts 333°
2026-04-30 10:50 21.41220 6.05047 36010 ft 478 kts 333°
2026-04-30 10:51 21.47410 6.02395 36010 ft 478 kts 333°
2026-04-30 10:51 21.53554 5.99760 36009 ft 478 kts 333°
2026-04-30 10:52 21.59735 5.97107 36010 ft 478 kts 333°
2026-04-30 10:52 21.65921 5.94450 36010 ft 478 kts 333°
2026-04-30 10:53 21.72099 5.91794 36019 ft 478 kts 332°
2026-04-30 10:53 21.78280 5.89134 36014 ft 479 kts 332°
2026-04-30 10:54 21.83430 5.86915 36015 ft 479 kts 332°
2026-04-30 10:54 21.90621 5.83815 36017 ft 479 kts 332°
2026-04-30 10:55 21.96807 5.81145 36024 ft 479 kts 332°
2026-04-30 10:55 22.01955 5.78921 36020 ft 479 kts 332°
2026-04-30 10:56 22.08132 5.76252 36021 ft 478 kts 332°
2026-04-30 10:56 22.14294 5.73586 36025 ft 477 kts 332°
2026-04-30 10:57 22.20454 5.70917 36028 ft 477 kts 332°
2026-04-30 10:57 22.26628 5.68239 36039 ft 479 kts 332°
2026-04-30 10:58 22.32818 5.65552 36038 ft 479 kts 332°
2026-04-30 10:58 22.39007 5.62865 36054 ft 478 kts 332°
2026-04-30 10:59 22.45179 5.60182 36051 ft 478 kts 332°
2026-04-30 10:59 22.51307 5.57515 36097 ft 478 kts 332°
2026-04-30 11:00 22.57474 5.54827 36147 ft 478 kts 332°
2026-04-30 11:00 22.63645 5.52136 36199 ft 478 kts 332°
2026-04-30 11:01 22.69812 5.49445 36247 ft 478 kts 332°
2026-04-30 11:01 22.75968 5.46756 36266 ft 476 kts 332°
2026-04-30 11:02 22.82306 5.44508 36266 ft 486 kts 342°
2026-04-30 11:02 22.88988 5.43258 36265 ft 488 kts 345°
2026-04-30 11:03 22.95679 5.42178 36230 ft 489 kts 345°
2026-04-30 11:04 23.05777 5.40566 36167 ft 488 kts 345°
2026-04-30 11:04 23.12498 5.39472 36125 ft 487 kts 345°
2026-04-30 11:05 23.19207 5.38371 36106 ft 487 kts 345°
2026-04-30 11:05 23.25915 5.37270 36104 ft 487 kts 345°
2026-04-30 11:06 23.32625 5.36167 36097 ft 487 kts 345°
2026-04-30 11:06 23.39286 5.35072 36101 ft 487 kts 344°
2026-04-30 11:07 23.45982 5.33970 36086 ft 486 kts 344°
2026-04-30 11:07 23.52669 5.32869 36063 ft 486 kts 344°
2026-04-30 11:08 23.59374 5.31762 36049 ft 488 kts 344°
2026-04-30 11:08 23.66101 5.30650 36065 ft 489 kts 344°
2026-04-30 11:09 23.72818 5.29542 36043 ft 488 kts 344°
2026-04-30 11:09 23.79500 5.28438 36043 ft 488 kts 344°
2026-04-30 11:10 23.86213 5.27326 36042 ft 488 kts 343°
2026-04-30 11:10 23.92927 5.26213 36048 ft 488 kts 343°
2026-04-30 11:11 23.99647 5.25098 36059 ft 488 kts 343°
2026-04-30 11:11 24.06363 5.23982 36054 ft 487 kts 343°
2026-04-30 11:12 24.13025 5.22875 36050 ft 487 kts 343°
2026-04-30 11:12 24.19718 5.21759 36059 ft 487 kts 343°
2026-04-30 11:13 24.26428 5.20641 36058 ft 487 kts 343°
2026-04-30 11:13 24.33130 5.19524 36062 ft 487 kts 343°
2026-04-30 11:14 24.39823 5.18407 36057 ft 486 kts 343°
2026-04-30 11:14 24.46517 5.17287 36036 ft 486 kts 343°
2026-04-30 11:15 24.53204 5.16166 36035 ft 486 kts 343°
2026-04-30 11:15 24.59844 5.15052 36036 ft 486 kts 343°
2026-04-30 11:16 24.66534 5.13932 36031 ft 486 kts 343°
2026-04-30 11:16 24.73225 5.12810 36025 ft 486 kts 343°
2026-04-30 11:17 24.79913 5.11687 36025 ft 486 kts 343°
2026-04-30 11:17 24.86599 5.10561 36026 ft 486 kts 343°
2026-04-30 11:18 24.93288 5.09433 36048 ft 486 kts 342°
2026-04-30 11:18 25.03305 5.07745 36018 ft 485 kts 343°
2026-04-30 11:19 25.09978 5.06618 36013 ft 485 kts 343°
2026-04-30 11:19 25.16655 5.05488 36013 ft 485 kts 342°
2026-04-30 11:20 25.23328 5.04359 36011 ft 485 kts 343°
2026-04-30 11:20 25.29977 5.03232 36004 ft 485 kts 342°
2026-04-30 11:21 25.36644 5.02101 36001 ft 485 kts 342°
2026-04-30 11:21 25.43307 5.00970 36003 ft 485 kts 342°
2026-04-30 11:22 25.49979 4.99835 36014 ft 484 kts 342°
2026-04-30 11:22 25.56650 4.98699 36012 ft 485 kts 342°
2026-04-30 11:23 25.63312 4.97564 36001 ft 484 kts 342°
2026-04-30 11:24 25.73258 4.95866 35995 ft 485 kts 342°
2026-04-30 11:24 25.79935 4.94725 35997 ft 486 kts 342°
2026-04-30 11:25 25.89984 4.93004 35990 ft 487 kts 342°
2026-04-30 11:26 26.03403 4.90704 35980 ft 488 kts 342°
2026-04-30 11:26 26.10069 4.89559 35969 ft 488 kts 342°
2026-04-30 11:27 26.16777 4.88401 35961 ft 487 kts 342°
2026-04-30 11:27 26.23516 4.87254 35973 ft 490 kts 342°
2026-04-30 11:28 26.33591 4.85516 35962 ft 487 kts 342°
2026-04-30 11:29 26.40301 4.84351 35966 ft 488 kts 342°
2026-04-30 11:29 26.50365 4.82607 35956 ft 488 kts 342°
2026-04-30 11:30 26.60368 4.80875 35954 ft 487 kts 342°
2026-04-30 11:31 26.67062 4.79715 35970 ft 487 kts 342°
2026-04-30 11:31 26.73759 4.78552 35955 ft 487 kts 342°
2026-04-30 11:32 26.80453 4.77388 35968 ft 487 kts 341°
2026-04-30 11:32 26.87159 4.76219 35955 ft 487 kts 341°
2026-04-30 11:33 26.97201 4.74466 35951 ft 487 kts 341°
2026-04-30 11:33 27.03906 4.73295 35950 ft 487 kts 341°
2026-04-30 11:34 27.10606 4.72124 35962 ft 487 kts 341°
2026-04-30 11:34 27.17304 4.70952 35941 ft 487 kts 341°
2026-04-30 11:35 27.24004 4.69777 35947 ft 487 kts 341°
2026-04-30 11:35 27.30657 4.68609 35947 ft 487 kts 341°
2026-04-30 11:36 27.37352 4.67433 35941 ft 487 kts 341°
2026-04-30 11:36 27.44055 4.66253 35945 ft 487 kts 341°
2026-04-30 11:37 27.50759 4.65072 35944 ft 488 kts 341°
2026-04-30 11:37 27.57468 4.63889 35941 ft 488 kts 341°
2026-04-30 11:38 27.64175 4.62705 35941 ft 488 kts 341°
2026-04-30 11:38 27.70881 4.61519 35941 ft 488 kts 341°
2026-04-30 11:39 27.77597 4.60330 35938 ft 488 kts 341°
2026-04-30 11:39 27.84304 4.59141 35938 ft 488 kts 341°
2026-04-30 11:40 27.89879 4.58152 35939 ft 488 kts 341°
2026-04-30 11:40 27.97679 4.56767 35940 ft 489 kts 341°
2026-04-30 11:41 28.04409 4.55569 35940 ft 490 kts 341°
2026-04-30 11:41 28.11161 4.54365 35938 ft 491 kts 341°
2026-04-30 11:42 28.17909 4.53161 35935 ft 491 kts 341°
2026-04-30 11:42 28.24624 4.51963 35935 ft 491 kts 341°
2026-04-30 11:43 28.31377 4.50755 35949 ft 491 kts 341°
2026-04-30 11:43 28.38121 4.49548 35930 ft 490 kts 341°
2026-04-30 11:44 28.43726 4.48545 35933 ft 490 kts 341°
2026-04-30 11:44 28.50470 4.47336 36003 ft 490 kts 341°
2026-04-30 11:45 28.53834 4.46740 36369 ft 488 kts 341°
2026-04-30 11:45 28.57179 4.46159 36816 ft 484 kts 341°
2026-04-30 11:45 28.60496 4.45587 37209 ft 481 kts 340°
2026-04-30 11:45 28.63813 4.45012 37547 ft 480 kts 340°
2026-04-30 11:46 28.67070 4.44445 37831 ft 479 kts 340°
2026-04-30 11:46 28.70378 4.43863 37926 ft 482 kts 340°
2026-04-30 11:46 28.77038 4.42686 37926 ft 484 kts 340°
2026-04-30 11:47 28.83705 4.41519 37929 ft 484 kts 340°
2026-04-30 11:47 28.90355 4.40354 37940 ft 484 kts 340°
2026-04-30 11:48 28.97015 4.39183 37927 ft 483 kts 340°
2026-04-30 11:48 29.03669 4.38011 37928 ft 483 kts 340°
2026-04-30 11:49 29.10281 4.36843 37929 ft 484 kts 340°
2026-04-30 11:49 29.16933 4.35669 37921 ft 484 kts 339°
2026-04-30 11:50 29.23594 4.34492 37927 ft 483 kts 339°
2026-04-30 11:50 29.30240 4.33319 37918 ft 483 kts 339°
2026-04-30 11:51 29.36884 4.32142 37924 ft 483 kts 339°
2026-04-30 11:51 29.43532 4.30958 37922 ft 484 kts 339°
2026-04-30 11:52 29.50187 4.29776 37925 ft 483 kts 339°
2026-04-30 11:52 29.56816 4.28598 37919 ft 482 kts 339°
2026-04-30 11:53 29.63454 4.27415 37922 ft 482 kts 339°
2026-04-30 11:53 29.70047 4.26238 37920 ft 482 kts 339°
2026-04-30 11:54 29.76686 4.25066 37945 ft 483 kts 340°
2026-04-30 11:54 29.83325 4.23906 37913 ft 481 kts 340°
2026-04-30 11:55 29.89949 4.22746 37924 ft 481 kts 340°
2026-04-30 11:55 29.96575 4.21581 37922 ft 481 kts 340°
2026-04-30 11:56 30.03206 4.20414 37919 ft 481 kts 340°
2026-04-30 11:56 30.09832 4.19247 37929 ft 482 kts 339°
2026-04-30 11:57 30.16464 4.18074 37916 ft 484 kts 339°
2026-04-30 11:57 30.23125 4.16897 37917 ft 484 kts 339°
2026-04-30 11:58 30.29747 4.15727 37916 ft 484 kts 339°
2026-04-30 11:58 30.36416 4.14547 37922 ft 484 kts 339°
2026-04-30 11:59 30.43062 4.13368 37919 ft 483 kts 339°
2026-04-30 11:59 30.49722 4.12183 37920 ft 483 kts 339°
2026-04-30 12:00 30.56364 4.11000 37927 ft 484 kts 339°
2026-04-30 12:00 30.63023 4.09815 37927 ft 484 kts 339°
2026-04-30 12:01 30.69679 4.08628 37925 ft 484 kts 339°
2026-04-30 12:01 30.76332 4.07439 37925 ft 484 kts 339°
2026-04-30 12:02 30.82949 4.06255 37924 ft 484 kts 339°
2026-04-30 12:02 30.89599 4.05064 37944 ft 484 kts 340°
2026-04-30 12:03 30.99571 4.03278 37927 ft 483 kts 340°
2026-04-30 12:04 31.06225 4.02083 37930 ft 483 kts 340°
2026-04-30 12:04 31.12874 4.00887 37933 ft 483 kts 340°
2026-04-30 12:05 31.19517 3.99689 37946 ft 483 kts 340°
2026-04-30 12:05 31.26148 3.98492 37932 ft 482 kts 340°
2026-04-30 12:06 31.32777 3.97292 37937 ft 481 kts 340°
2026-04-30 12:06 31.39402 3.96092 37936 ft 482 kts 340°
2026-04-30 12:07 31.45986 3.94897 37935 ft 481 kts 340°
2026-04-30 12:07 31.52605 3.93695 37943 ft 481 kts 340°
2026-04-30 12:08 31.59223 3.92494 37946 ft 480 kts 340°
2026-04-30 12:08 31.65827 3.91291 37951 ft 480 kts 340°
2026-04-30 12:09 31.72434 3.90085 37946 ft 480 kts 340°
2026-04-30 12:09 31.79041 3.88878 37946 ft 479 kts 341°
2026-04-30 12:10 31.85625 3.87676 37948 ft 478 kts 341°
2026-04-30 12:10 31.92175 3.86477 37955 ft 479 kts 341°
2026-04-30 12:11 31.98758 3.85269 37956 ft 479 kts 341°
2026-04-30 12:11 32.05346 3.84058 37959 ft 478 kts 341°
2026-04-30 12:12 32.11922 3.82848 37956 ft 478 kts 341°
2026-04-30 12:12 32.18508 3.81635 37957 ft 478 kts 341°
2026-04-30 12:13 32.25043 3.80430 37961 ft 479 kts 341°
2026-04-30 12:13 32.31641 3.79209 37966 ft 480 kts 342°
2026-04-30 12:14 32.38292 3.78143 38050 ft 488 kts 348°
2026-04-30 12:14 32.45185 3.78581 38046 ft 500 kts 357°
2026-04-30 12:15 32.52114 3.79545 38034 ft 502 kts 358°
2026-04-30 12:15 32.59012 3.80580 38016 ft 502 kts 359°
2026-04-30 12:16 32.65925 3.81604 37985 ft 499 kts 358°
2026-04-30 12:16 32.72818 3.82604 37972 ft 499 kts 358°
2026-04-30 12:17 32.83152 3.84095 38000 ft 499 kts 358°
2026-04-30 12:17 32.90037 3.85090 37963 ft 498 kts 359°
2026-04-30 12:18 32.96918 3.86089 37967 ft 498 kts 359°
2026-04-30 12:18 33.03796 3.87088 37971 ft 498 kts 359°
2026-04-30 12:19 33.10668 3.88083 37987 ft 498 kts 359°
2026-04-30 12:19 33.17507 3.89070 37973 ft 498 kts 359°
2026-04-30 12:20 33.24381 3.90065 37974 ft 498 kts 359°
2026-04-30 12:20 33.31261 3.91065 37975 ft 498 kts 359°
2026-04-30 12:21 33.38146 3.92065 37975 ft 498 kts 359°
2026-04-30 12:21 33.45042 3.93069 37972 ft 498 kts 359°
2026-04-30 12:22 33.51934 3.94075 37976 ft 498 kts 359°
2026-04-30 12:22 33.58817 3.95080 37972 ft 498 kts 359°
2026-04-30 12:23 33.65708 3.96088 37977 ft 498 kts 360°
2026-04-30 12:23 33.72538 3.97089 37975 ft 498 kts 360°
2026-04-30 12:24 33.79413 3.98099 37972 ft 498 kts 360°
2026-04-30 12:24 33.86303 3.99112 37973 ft 498 kts 360°
2026-04-30 12:25 33.93184 4.00124 37981 ft 498 kts
2026-04-30 12:25 34.00067 4.01140 37979 ft 498 kts
2026-04-30 12:26 34.06952 4.02157 37978 ft 498 kts
2026-04-30 12:26 34.13826 4.03177 37971 ft 498 kts
2026-04-30 12:27 34.20658 4.04173 37976 ft 498 kts
2026-04-30 12:27 34.27547 4.05173 37982 ft 498 kts
2026-04-30 12:28 34.34438 4.06180 37986 ft 498 kts
2026-04-30 12:28 34.41324 4.07190 38021 ft 498 kts
2026-04-30 12:29 34.48217 4.08202 38000 ft 499 kts
2026-04-30 12:29 34.55109 4.09213 37996 ft 499 kts
2026-04-30 12:30 34.60836 4.10060 38005 ft 499 kts
2026-04-30 12:30 34.68847 4.11245 38010 ft 499 kts
2026-04-30 12:31 34.74619 4.12099 38001 ft 498 kts
2026-04-30 12:31 34.82611 4.13283 38001 ft 498 kts
2026-04-30 12:32 34.88336 4.14133 37998 ft 498 kts
2026-04-30 12:32 34.95210 4.15155 37999 ft 498 kts
2026-04-30 12:33 35.02085 4.16179 37988 ft 498 kts
2026-04-30 12:33 35.08965 4.17207 37987 ft 497 kts
2026-04-30 12:34 35.15838 4.18236 38028 ft 497 kts
2026-04-30 12:34 35.22706 4.19261 38041 ft 497 kts
2026-04-30 12:35 35.29504 4.19879 38050 ft 486 kts 351°
2026-04-30 12:35 35.36018 4.18319 38052 ft 470 kts 333°
2026-04-30 12:36 35.41798 4.14738 38045 ft 465 kts 324°
2026-04-30 12:36 35.47369 4.10696 38028 ft 464 kts 323°
2026-04-30 12:37 35.52901 4.06617 38011 ft 464 kts 323°
2026-04-30 12:37 35.58445 4.02556 37995 ft 464 kts 324°
2026-04-30 12:38 35.64003 3.98504 37983 ft 464 kts 324°
2026-04-30 12:38 35.69538 3.94480 38011 ft 465 kts 324°
2026-04-30 12:39 35.75112 3.90458 37988 ft 464 kts 324°
2026-04-30 12:39 35.80681 3.86437 37998 ft 464 kts 324°
2026-04-30 12:40 35.86251 3.82403 37999 ft 464 kts 324°
2026-04-30 12:40 35.91820 3.78360 38008 ft 465 kts 324°
2026-04-30 12:41 35.97401 3.74300 38006 ft 465 kts 324°
2026-04-30 12:41 36.02984 3.70234 38021 ft 466 kts 324°
2026-04-30 12:42 36.08563 3.66164 38021 ft 466 kts 324°
2026-04-30 12:42 36.14149 3.62082 38020 ft 466 kts 324°
2026-04-30 12:43 36.19702 3.58018 38036 ft 466 kts 324°
2026-04-30 12:43 36.25278 3.53929 38030 ft 466 kts 324°
2026-04-30 12:44 36.30856 3.49833 38042 ft 466 kts 324°
2026-04-30 12:44 36.36448 3.45720 38042 ft 466 kts 324°
2026-04-30 12:45 36.42018 3.41615 38054 ft 466 kts 324°
2026-04-30 12:45 36.47556 3.37527 38055 ft 466 kts 324°
2026-04-30 12:46 36.53134 3.33402 38066 ft 466 kts 324°
2026-04-30 12:46 36.58703 3.29277 38098 ft 466 kts 324°
2026-04-30 12:47 36.64281 3.25139 38103 ft 466 kts 324°
2026-04-30 12:47 36.69852 3.20999 38104 ft 466 kts 324°
2026-04-30 12:48 36.75359 3.16737 38103 ft 465 kts 322°
2026-04-30 12:48 36.80784 3.12428 38098 ft 466 kts 322°
2026-04-30 12:49 36.86257 3.08093 38089 ft 466 kts 322°
2026-04-30 12:49 36.91737 3.03770 38086 ft 466 kts 322°
2026-04-30 12:50 36.97232 2.99433 38072 ft 467 kts 323°
2026-04-30 12:50 37.02735 2.95085 38068 ft 468 kts 323°
2026-04-30 12:51 37.08247 2.90720 38073 ft 469 kts 323°
2026-04-30 12:51 37.13760 2.86348 38071 ft 469 kts 322°
2026-04-30 12:52 37.19265 2.81974 38071 ft 468 kts 322°
2026-04-30 12:52 37.24768 2.77592 38069 ft 468 kts 323°
2026-04-30 12:53 37.30267 2.73207 38070 ft 469 kts 323°
2026-04-30 12:53 37.35778 2.68804 38069 ft 469 kts 323°
2026-04-30 12:54 37.41282 2.64400 38075 ft 470 kts 322°
2026-04-30 12:54 37.46764 2.60003 38078 ft 470 kts 323°
2026-04-30 12:55 37.52295 2.55562 38070 ft 470 kts 323°
2026-04-30 12:55 37.57809 2.51127 38070 ft 470 kts 323°
2026-04-30 12:56 37.63316 2.46688 38067 ft 470 kts 323°
2026-04-30 12:56 37.68828 2.42238 38067 ft 470 kts 322°
2026-04-30 12:57 37.74329 2.37788 38073 ft 469 kts 323°
2026-04-30 12:57 37.79839 2.33324 38067 ft 469 kts 323°
2026-04-30 12:58 37.85392 2.28958 38070 ft 470 kts 324°
2026-04-30 12:58 37.91003 2.24751 38069 ft 473 kts 325°
2026-04-30 12:59 37.96663 2.20494 38069 ft 473 kts 324°
2026-04-30 12:59 38.02311 2.16202 38064 ft 473 kts 324°
2026-04-30 13:00 38.07943 2.11898 38066 ft 473 kts 324°
2026-04-30 13:00 38.13579 2.07580 38066 ft 473 kts 324°
2026-04-30 13:01 38.19212 2.03257 38053 ft 473 kts 324°
2026-04-30 13:01 38.24843 1.98931 38072 ft 472 kts 324°
2026-04-30 13:02 38.30418 1.94639 38075 ft 471 kts 324°
2026-04-30 13:02 38.36033 1.90311 38056 ft 472 kts 324°
2026-04-30 13:03 38.41658 1.85967 38055 ft 473 kts 324°
2026-04-30 13:03 38.47287 1.81604 38053 ft 473 kts 324°
2026-04-30 13:04 38.52922 1.77231 38051 ft 473 kts 324°
2026-04-30 13:04 38.58550 1.72853 38073 ft 473 kts 324°
2026-04-30 13:05 38.64175 1.68475 38057 ft 473 kts 324°
2026-04-30 13:06 38.72601 1.61906 38049 ft 472 kts 324°
2026-04-30 13:06 38.78208 1.57521 38049 ft 472 kts 324°
2026-04-30 13:07 38.83783 1.53151 38049 ft 472 kts 324°
2026-04-30 13:07 38.89503 1.48926 38058 ft 479 kts 331°
2026-04-30 13:08 38.95963 1.46522 38052 ft 490 kts 347°
2026-04-30 13:08 39.02765 1.45472 38049 ft 492 kts 350°
2026-04-30 13:09 39.08430 1.44770 38050 ft 493 kts 350°
2026-04-30 13:09 39.16363 1.43797 38052 ft 492 kts 350°
2026-04-30 13:10 39.23175 1.42924 38058 ft 491 kts 349°
2026-04-30 13:10 39.29983 1.42033 38062 ft 491 kts 349°
2026-04-30 13:11 39.36784 1.41140 38058 ft 491 kts 349°
2026-04-30 13:11 39.43592 1.40252 38062 ft 491 kts 349°
2026-04-30 13:12 39.50378 1.39355 38064 ft 491 kts 349°
2026-04-30 13:12 39.57178 1.38455 38079 ft 490 kts 349°
2026-04-30 13:13 39.67312 1.37120 38070 ft 490 kts 349°
2026-04-30 13:14 39.77481 1.35766 38072 ft 490 kts 349°
2026-04-30 13:14 39.87654 1.34411 38072 ft 489 kts 349°
2026-04-30 13:15 39.97815 1.33054 38075 ft 489 kts 349°
2026-04-30 13:16 40.03437 1.32302 38091 ft 489 kts 349°
2026-04-30 13:16 40.10200 1.31397 38080 ft 488 kts 349°
2026-04-30 13:17 40.20329 1.30035 38079 ft 488 kts 349°
2026-04-30 13:18 40.30415 1.28677 38077 ft 486 kts 348°
2026-04-30 13:18 40.40495 1.27320 38081 ft 485 kts 348°
2026-04-30 13:19 40.47208 1.26407 38101 ft 485 kts 348°
2026-04-30 13:19 40.53911 1.25495 38083 ft 483 kts 348°
2026-04-30 13:20 40.60587 1.24585 38083 ft 482 kts 348°
2026-04-30 13:20 40.67268 1.23673 38083 ft 482 kts 348°
2026-04-30 13:21 40.73953 1.22759 38086 ft 482 kts 348°
2026-04-30 13:22 40.83938 1.21391 38082 ft 482 kts 348°
2026-04-30 13:22 40.93964 1.20014 38072 ft 481 kts 348°
2026-04-30 13:23 41.03914 1.18644 38083 ft 480 kts 348°
2026-04-30 13:24 41.17213 1.16815 38076 ft 481 kts 349°
2026-04-30 13:25 41.30588 1.15460 38073 ft 481 kts 349°
2026-04-30 13:26 41.47229 1.13739 38073 ft 481 kts 349°
2026-04-30 13:28 41.63918 1.11978 38064 ft 480 kts 349°
2026-04-30 13:28 41.73911 1.10918 38073 ft 480 kts 349°
2026-04-30 13:29 41.87234 1.09494 38078 ft 480 kts 349°
2026-04-30 13:31 42.03835 1.07716 38084 ft 480 kts 349°
2026-04-30 13:32 42.20501 1.05926 38111 ft 480 kts 349°
2026-04-30 13:33 42.33871 1.04482 38101 ft 482 kts 349°
2026-04-30 13:34 42.39419 1.03882 38105 ft 482 kts 350°